Stations météo

réclame
Mon MeteoGroup
Hyeres, France (7667): Température de l'air & dewpoint: 17.08.2019 16:00:00 - 23.08.2019 16:00:00 (CEST)Hyeres, France (7667): Température de l'air 5cm: 17.08.2019 16:00:00 - 23.08.2019 16:00:00 (CEST)Hyeres, France (7667): Vitesse du vent & gusts: 17.08.2019 16:00:00 - 23.08.2019 16:00:00 (CEST)Hyeres, France (7667): Direction du vent: 17.08.2019 16:00:00 - 23.08.2019 16:00:00 (CEST)Hyeres, France (7667): reduced air pressure: 17.08.2019 16:00:00 - 23.08.2019 16:00:00 (CEST)Hyeres, France (7667): visibility: 17.08.2019 16:00:00 - 23.08.2019 16:00:00 (CEST)Hyeres, France (7667): Quantités de précipitations: 17.08.2019 16:00:00 - 23.08.2019 16:00:00 (CEST)
Date & Time tt [°C] td [°C] tt 5cm [°C] ff [km/h] ff [knt] fx [km/h] fx [knt] dd ppp [hPa] vv [km] rr [mm]
23.08.2019 16:00:00 28,4 19,9 34,7 18 10 26 14 ESE 1019,1 20 0,0
23.08.2019 15:00:00 28,6 18,4 35,8 16 9 26 14 ESE 1019,4 20 0,0
23.08.2019 14:00:00 29,1 20,0 36,2 17 9 26 14 SE 1019,7 19 0,0
23.08.2019 13:00:00 29,7 21,4 36,0 16 9 23 13 SE 1020,1 42 0,0
23.08.2019 12:00:00 28,9 19,2 34,6 14 8 26 14 ESE 1020,0 19 0,0
23.08.2019 11:00:00 28,4 18,5 34,3 16 8 23 12 ESE 1019,9 20 0,0
23.08.2019 10:00:00 29,5 14,1 30,5 3 2 11 6 NNE 1019,0 51 0,0
23.08.2019 09:00:00 25,1 13,9 24,7 8 4 16 8 NNW 1018,8 18 0,0
23.08.2019 08:00:00 22,1 14,2 18,4 7 4 14 8 NNW 1018,9 10 0,0
23.08.2019 07:00:00 20,4 13,1 17,8 12 6 16 9 NW 1018,9 3,9 0,0
23.08.2019 06:00:00 20,5 13,0 17,5 11 6 16 9 NW 1018,4 8 0,0
23.08.2019 05:00:00 21,2 12,9 16,9 9 5 13 7 WNW 1018,4 60 0,0
23.08.2019 04:00:00 21,6 13,0 18,8 8 4 13 7 NW 1018,6 34 0,0
23.08.2019 03:00:00 22,1 12,9 18,8 9 5 16 9 NW 1018,8 60 0,0
23.08.2019 02:00:00 22,0 13,4 19,0 11 6 17 9 NW 1019,1 60 0,0
23.08.2019 01:00:00 21,4 14,1 17,4 11 6 16 9 NNW 1019,4 60 0,0
23.08.2019 00:00:00 21,5 13,9 18,2 6 3 11 6 NE 1019,1 57 0,0
22.08.2019 23:00:00 21,9 14,5 18,8 5 3 9 5 NNE 1019,2 57 0,0
22.08.2019 22:00:00 24,4 14,8 21,3 5 3 17 9 NNW 1019,3 60 0,0
22.08.2019 21:00:00 26,0 15,4 24,1 11 6 24 13 N 1019,4 58 0,0
22.08.2019 20:00:00 26,5 21,3 25,3 9 5 13 7 W 1019,4 24 0,0
22.08.2019 19:00:00 26,9 21,0 26,4 4 2 11 6 SSE 1018,9 25 0,0
22.08.2019 18:00:00 27,1 22,3 28,3 5 3 18 10 E 1018,8 20 0,0
22.08.2019 17:00:00 27,7 21,5 29,7 14 8 24 13 SE 1018,7 40 0,0
22.08.2019 16:00:00 29,0 21,5 35,4 15 8 24 13 E 1018,6 20 0,0
22.08.2019 15:00:00 28,9 20,6 30,4 13 7 20 11 E 1019,1 50 0,0
22.08.2019 14:00:00 28,0 19,5 33,2 12 7 22 12 ESE 1019,4 60 0,0
22.08.2019 13:00:00 28,1 20,1 33,9 14 7 23 12 SE 1019,4 20 0,0
22.08.2019 12:00:00 28,8 16,4 33,6 9 5 15 8 SE 1019,2 60 0,0
22.08.2019 11:00:00 28,5 18,0 30,9 9 5 15 8 NE 1018,9 47 0,0
22.08.2019 10:00:00 26,6 17,9 24,0 9 5 21 11 NW 1018,8 43 0,0
22.08.2019 09:00:00 22,5 18,1 19,9 15 8 19 10 WNW 1018,2 35 0,0
22.08.2019 08:00:00 20,7 18,1 19,0 12 6 17 9 N 1017,3 25 0,0
22.08.2019 07:00:00 20,3 18,4 18,5 5 3 9 5 NNE 1017,9 20 0,0
22.08.2019 06:00:00 20,5 19,0 18,0 5 3 6 3 N 1017,7 20 0,0
22.08.2019 05:00:00 20,6 18,9 17,6 3 2 14 8 NNE 1017,5 24 0,0
22.08.2019 04:00:00 20,8 19,5 16,9 3 2 8 4 NNW 1017,5 20 0,0
22.08.2019 03:00:00 20,2 19,0 16,5 3 2 9 5 N 1017,5 19 0,0
22.08.2019 02:00:00 20,1 18,6 17,2 4 2 7 4 NNE 1017,9 16 0,0
22.08.2019 01:00:00 20,8 19,3 16,7 4 2 5 3 NNE 1017,9 24 0,0
22.08.2019 00:00:00 21,5 19,6 17,3 3 2 6 3 N 1018,1 28 0,0
21.08.2019 23:00:00 22,5 20,6 18,4 3 1 4 2 N 1017,8 32 0,0
21.08.2019 22:00:00 23,9 21,0 20,4 0 0 6 3 N 1017,8 4,2 0,0
21.08.2019 21:00:00 24,5 21,2 22,5 4 2 12 7 WSW 1017,6 39 0,0
21.08.2019 20:00:00 25,6 21,5 25,0 5 3 18 10 SSE 1017,2 49 0,0
21.08.2019 19:00:00 26,1 21,5 27,1 9 5 26 14 SE 1016,7 50 0,0
21.08.2019 18:00:00 27,1 21,2 32,2 17 9 28 15 SE 1016,8 19 0,0
21.08.2019 17:00:00 28,0 20,8 33,3 17 9 33 18 ESE 1017,1 20 0,0
21.08.2019 16:00:00 28,0 20,6 33,9 21 11 33 18 ESE 1017,3 22 0,0
21.08.2019 15:00:00 28,3 20,1 34,4 21 11 35 19 ESE 1017,6 23 0,0
21.08.2019 14:00:00 28,1 20,9 34,1 22 12 38 21 ESE 1017,5 24 0,0
21.08.2019 13:00:00 28,3 21,6 33,2 24 13 41 22 ESE 1017,5 20 0,0
21.08.2019 12:00:00 28,1 21,6 33,0 25 14 39 21 ESE 1017,7 20 0,0
21.08.2019 11:00:00 28,4 20,4 33,4 20 11 32 17 ESE 1017,6 20 0,0
21.08.2019 10:00:00 28,0 20,8 30,4 13 7 21 11 E 1017,4 19 0,0
21.08.2019 09:00:00 25,2 17,7 25,3 11 6 16 8 NW 1017,3 53 0,0
21.08.2019 08:00:00 22,8 16,8 19,4 11 6 15 8 NNW 1017,0 48 0,0
21.08.2019 07:00:00 21,1 15,9 18,8 8 5 15 8 NNW 1016,6 53 0,0
21.08.2019 06:00:00 21,2 15,5 18,2 9 5 16 9 NW 1016,3 60 0,0
21.08.2019 05:00:00 21,0 15,3 18,0 9 5 14 7 NW 1016,3 60 0,0
21.08.2019 04:00:00 21,0 15,1 16,4 3 2 6 4 NNW 1016,4 60 0,0
21.08.2019 03:00:00 21,7 14,8 19,0 6 4 13 7 NW 1016,3 60 0,0
21.08.2019 02:00:00 22,8 14,9 19,7 8 5 18 10 NNW 1016,5 60 0,0
21.08.2019 01:00:00 22,4 15,7 17,5 11 6 16 8 NW 1016,6 60 0,0
21.08.2019 00:00:00 23,4 16,4 20,0 0 0 12 7 N 1016,9 60 0,0
20.08.2019 23:00:00 24,6 15,0 21,0 6 4 13 7 N 1016,9 60 0,0
20.08.2019 22:00:00 25,5 16,4 23,2 10 6 16 9 N 1017,0 60 0,0
20.08.2019 21:00:00 26,1 18,5 24,2 8 4 10 5 N 1016,5 47 0,0
20.08.2019 20:00:00 27,4 17,6 26,2 4 2 20 11 SSE 1016,1 59 0,0
20.08.2019 19:00:00 28,4 18,5 28,6 8 5 23 13 SSW 1016,2 58 0,0
20.08.2019 18:00:00 29,0 18,7 29,5 16 9 22 12 SW 1016,8 45 0,0
20.08.2019 17:00:00 29,2 19,8 34,5 13 7 23 12 SSW 1016,9 20 0,0
20.08.2019 16:00:00 27,9 20,5 34,0 16 9 29 16 SW 1017,7 20 0,0
20.08.2019 15:00:00 28,0 21,8 36,1 16 9 27 15 SW 1017,6 20 0,0
20.08.2019 14:00:00 28,1 21,9 31,1 13 7 24 13 SSW 1017,5 20 0,0
20.08.2019 13:00:00 26,9 21,9 30,7 11 6 22 12 S 1017,7 25 0,0
20.08.2019 12:00:00 28,0 21,5 34,1 14 8 22 12 SE 1017,6 31 0,0
20.08.2019 11:00:00 27,8 20,6 34,2 9 5 16 8 ESE 1017,5 57 0,0
20.08.2019 10:00:00 26,9 21,2 27,8 9 5 15 8 ESE 1017,3 20 0,0
20.08.2019 09:00:00 25,0 21,3 23,5 4 2 8 4 NNE 1017,2 20 0,0
20.08.2019 08:00:00 22,8 20,5 19,7 4 2 8 5 NNE 1016,8 16 0,0
20.08.2019 07:00:00 21,4 19,7 18,0 5 3 13 7 N 1016,4 17 0,0
20.08.2019 06:00:00 21,3 19,6 19,0 6 4 10 5 NNE 1016,1 12 0,0
20.08.2019 05:00:00 22,6 20,5 19,8 3 1 6 3 W 1016,3 20 0,0
20.08.2019 04:00:00 21,5 20,0 19,0 0 0 5 3 N 1016,3 17 0,0
20.08.2019 03:00:00 21,5 20,0 19,6 3 2 6 3 N 1016,5 15 0,0
20.08.2019 02:00:00 21,7 20,2 19,3 4 2 8 4 N 1017,0 14 0,0
20.08.2019 01:00:00 21,6 19,9 19,0 0 0 5 3 N 1017,3 16 0,0
20.08.2019 00:00:00 22,0 19,5 19,6 5 3 9 5 NE 1017,5 15 0,0
19.08.2019 23:00:00 23,6 20,5 20,1 3 1 10 5 W 1017,8 20 0,0
19.08.2019 22:00:00 24,1 21,0 21,7 5 3 13 7 S 1017,4 28 0,0
19.08.2019 21:00:00 24,7 21,6 22,9 11 6 22 12 W 1017,1 31 0,0
19.08.2019 20:00:00 25,0 21,5 23,8 16 9 26 14 SW 1016,8 34 0,0
19.08.2019 19:00:00 25,4 21,5 25,4 17 9 25 13 SW 1016,8 34 0,0
19.08.2019 18:00:00 27,1 21,6 30,8 16 9 23 13 SW 1016,9 20 0,0
19.08.2019 17:00:00 27,3 21,3 32,0 15 8 23 13 SW 1016,9 20 0,0
19.08.2019 16:00:00 27,3 21,3 35,4 14 8 26 14 SW 1017,0 20 0,0
19.08.2019 15:00:00 28,1 21,1 36,2 13 7 26 14 SSW 1017,1 57 0,0
19.08.2019 14:00:00 28,0 20,6 36,2 16 9 23 13 SSE 1016,8 20 0,0
19.08.2019 13:00:00 27,9 20,5 33,2 14 7 23 12 ESE 1016,7 59 0,0
19.08.2019 12:00:00 28,1 21,4 34,4 11 6 19 10 SE 1016,8 34 0,0
19.08.2019 11:00:00 26,8 20,4 33,4 9 5 17 9 SE 1016,7 18 0,0
19.08.2019 10:00:00 26,5 20,8 30,9 7 4 14 7 SE 1016,3 52 0,0
19.08.2019 09:00:00 24,6 19,9 25,8 5 3 10 5 NNW 1016,3 20 0,0
19.08.2019 08:00:00 22,6 19,6 19,5 5 3 6 4 NNE 1015,9 20 0,0
19.08.2019 07:00:00 21,0 18,9 18,6 8 4 14 8 NNW 1015,8 23 0,0
19.08.2019 06:00:00 20,5 18,4 17,4 11 6 16 9 NW 1015,6 26 0,0
19.08.2019 05:00:00 20,6 18,4 17,3 5 3 7 4 N 1015,5 20 0,0
19.08.2019 04:00:00 21,0 18,8 18,6 3 2 8 5 NNW 1015,9 30 0,0
19.08.2019 03:00:00 20,7 18,5 17,5 4 2 9 5 NNE 1015,7 33 0,0
19.08.2019 02:00:00 20,6 17,6 17,5 4 2 11 6 NNE 1016,1 32 0,0
19.08.2019 01:00:00 20,4 18,2 17,1 8 4 11 6 N 1016,3 37 0,0
19.08.2019 00:00:00 21,5 18,9 18,9 6 4 9 5 NNE 1016,2 35 0,0
18.08.2019 23:00:00 23,9 20,6 21,9 6 3 20 11 ENE 1015,9 47 0,0
18.08.2019 22:00:00 23,9 20,6 21,7 11 6 21 11 E 1015,2 49 0,0
18.08.2019 21:00:00 24,3 20,4 22,6 12 7 23 12 ESE 1014,8 53 0,0
18.08.2019 20:00:00 25,1 20,1 25,0 13 7 23 12 E 1014,7 48 0,0
18.08.2019 19:00:00 26,0 21,0 29,0 15 8 27 15 ESE 1014,8 58 0,0
18.08.2019 18:00:00 26,8 21,1 31,0 17 9 31 17 ESE 1015,2 49 0,0
18.08.2019 17:00:00 27,4 21,2 33,3 18 10 29 16 ESE 1015,2 30 0,0
18.08.2019 16:00:00 27,3 20,9 31,5 16 9 27 15 ESE 1015,6 34 0,0
18.08.2019 15:00:00 27,3 21,1 34,0 16 9 29 16 SE 1015,8 20 0,0
18.08.2019 14:00:00 27,0 20,8 34,9 18 10 27 14 SE 1016,0 20 0,0
18.08.2019 13:00:00 27,1 20,9 34,9 16 9 26 14 SE 1016,2 57 0,0
18.08.2019 12:00:00 26,9 21,0 34,4 14 8 23 12 SE 1016,4 56 0,0
18.08.2019 11:00:00 26,7 21,0 32,3 10 5 18 10 ESE 1016,1 20 0,0
18.08.2019 10:00:00 26,0 20,6 29,4 8 4 14 8 E 1015,9 20 0,0
18.08.2019 09:00:00 23,2 20,2 21,2 6 3 8 4 NNW 1015,7 19 0,0
18.08.2019 08:00:00 20,7 19,2 16,8 4 2 7 4 N 1015,6 13 0,0
18.08.2019 07:00:00 18,8 17,1 15,7 5 3 7 4 N 1015,4 17 0,2
18.08.2019 06:00:00 18,7 17,2 16,1 4 2 8 5 N 1015,3 19 0,0
18.08.2019 05:00:00 19,0 17,8 15,5 6 3 9 5 N 1015,4 11 0,0
18.08.2019 04:00:00 20,2 18,9 15,6 3 1 7 4 NW 1015,6 16 0,0
18.08.2019 03:00:00 20,3 18,6 17,9 5 3 12 6 N 1015,7 15 0,0
18.08.2019 02:00:00 21,2 19,8 18,9 7 4 9 5 NW 1016,2 12 0,0
18.08.2019 01:00:00 21,3 20,1 17,3 4 2 7 4 NW 1016,2 10 0,0
18.08.2019 00:00:00 21,6 19,9 19,0 5 3 12 7 NNE 1016,1 12 0,0
17.08.2019 23:00:00 23,3 21,7 20,6 9 5 16 9 SW 1016,1 18 0,0
17.08.2019 22:00:00 23,6 21,7 21,6 10 5 19 10 SW 1016,1 24 0,0
17.08.2019 21:00:00 23,8 22,1 22,1 8 4 27 14 SW 1015,6 27 0,0
17.08.2019 20:00:00 24,7 22,2 24,4 16 9 28 15 WSW 1015,6 34 0,0
17.08.2019 19:00:00 25,6 22,1 27,3 18 10 29 15 SW 1015,6 32 0,0
17.08.2019 18:00:00 26,6 22,0 30,6 19 10 31 17 WSW 1015,9 23 0,0
17.08.2019 17:00:00 26,3 21,9 31,8 16 9 26 14 SW 1016,1 19 0,0
17.08.2019 16:00:00 26,1 21,5 32,0 15 8 28 15 SW 1016,5 45 0,0

tt = Température de l'air
td = dewpoint
tt 5cm = Température de l'air 5cm
ff = Vitesse du vent
fx = gusts
dd = Direction du vent
ppp = reduced air pressure
vv = visibility
rr = Quantités de précipitations

stations d'obs. à proximité